Location: Zengebe
(1.4833°N, 32.5167°E)
Time: 23:29:22
(UTC+00:00)

CZ-2C R/B - Pass Details

Date: 07 June 2020
Orbit: 668 x 784 km, 98.2° (Epoch: 10 July)

Event Time Altitude Azimuth Distance (km) Brightness Sun altitude
Rises 00:59:15 0° 28° (NNE) 3,239 6.4 -37.7°
Reaches altitude 10° 01:01:46 10° 37° (NE) 2,304 5.6 -37.2°
Enters shadow 01:04:51 28° 68° (ENE) 1,386 4.3 -36.5°
